sat.trackr.live / text

‹ back to catalog

STARLINK-33763

NORAD 63452 · 2025-069V

PAYLOAD ACTIVE UNKNOWN

§ Identity

Operator
Country
US
Launch date
2025-04-04
Launch site
AFWTR
Launch vehicle
Mass (kg)
RCS (m²)

Purposes: comms

External: N2YO · Heavens-Above · Gunter

§ Orbital elements

Epoch: 2026-05-25T04:02:17.581056Z

Period
93.37 min
Inclination
53.1579°
Eccentricity
0.0001397
Mean motion
15.42217267 rev/d
Perigee alt
438.6 km
Apogee alt
440.5 km
Semi-major
6,817.7 km
B*
1.4322e-3
RAAN
144.4069°
Arg perigee
118.5711°
Mean anomaly
241.5435°
Rev number
6,515

§ Raw data

STARLINK-337631 63452U 25069V   26145.16825904  .00062542  00000+0  14322-2 0  99972 63452  53.1579 144.4069 0001397 118.5711 241.5435 15.42217267 65152

JSON: /api/v1/satellites/63452 · /tle

For live sub-satellite position, see the globe view (requires WebGL).

§ Visibility from observer

Set your observer location to see the next 7 days of passes ≥ 10°. The values pass through the URL so the page stays shareable.

No JS? Fill the form by hand. The geolocation button needs JavaScript.